CFG61JK EDDW-EDDB

Flight info

Callsign CFG61JK
Flight time N/A
Altitude 24000
Route GESTO8M GESTO Z870 BKD L619 VIBIS T209 OGBER
Aircraft A320/M-SDE3FGHIRWY/LB1

Departure

Time 2026-04-29 15:19
Airport Bremen Airport (EDDW)

Arrival

Time N/A
Airport Berlin Brandenburg Airport (EDDB)
Time Latitude Longitude Altitude Speed Heading
2026-04-29 15:03 53.05177 8.78543 18 ft 0 kts 49°
2026-04-29 15:11 53.05174 8.78536 18 ft 2 kts 49°
2026-04-29 15:12 53.05163 8.78515 18 ft 2 kts 49°
2026-04-29 15:12 53.05155 8.78501 19 ft 2 kts 49°
2026-04-29 15:12 53.05140 8.78473 20 ft 2 kts
2026-04-29 15:12 53.05127 8.78476 22 ft 0 kts 317°
2026-04-29 15:14 53.05139 8.78457 20 ft 4 kts 312°
2026-04-29 15:14 53.05157 8.78402 20 ft 8 kts 295°
2026-04-29 15:14 53.05169 8.78322 20 ft 7 kts 283°
2026-04-29 15:14 53.05180 8.78246 20 ft 6 kts 283°
2026-04-29 15:15 53.05189 8.78180 20 ft 5 kts 283°
2026-04-29 15:15 53.05191 8.78110 20 ft 10 kts 264°
2026-04-29 15:15 53.05154 8.77973 20 ft 16 kts 234°
2026-04-29 15:15 53.05059 8.77789 21 ft 26 kts 227°
2026-04-29 15:16 53.04966 8.77615 22 ft 14 kts 227°
2026-04-29 15:16 53.04961 8.77606 22 ft 1 kts 226°
2026-04-29 15:16 53.04957 8.77599 22 ft 4 kts 226°
2026-04-29 15:16 53.04896 8.77512 21 ft 20 kts 213°
2026-04-29 15:17 53.04804 8.77457 21 ft 0 kts 189°
2026-04-29 15:17 53.04797 8.77455 21 ft 3 kts 190°
2026-04-29 15:17 53.04710 8.77453 21 ft 18 kts 176°
2026-04-29 15:17 53.04655 8.77575 18 ft 14 kts 96°
2026-04-29 15:18 53.04662 8.77745 18 ft 18 kts 89°
2026-04-29 15:18 53.04675 8.78265 19 ft 82 kts 86°
2026-04-29 15:18 53.04707 8.79585 23 ft 144 kts 86°
2026-04-29 15:18 53.04752 8.81354 494 ft 162 kts 88°
2026-04-29 15:19 53.04778 8.83301 1293 ft 168 kts 87°
2026-04-29 15:19 53.04817 8.85247 2140 ft 173 kts 87°